Weather History for Galena, AK

Change the Weather History Date:

Wednesday, December 5, 2012

  Actual Average Record
Temperature  
Mean Temperature -12 °F -  
Max Temperature -9 °F 0 °F 35 °F (2002)
Min Temperature -15 °F -12 °F -48 °F (1951)
Degree Days  
Heating Degree Days 77    
Moisture  
Dew Point -17 °F    
Average Humidity 80    
Maximum Humidity 83    
Minimum Humidity 78    
Precipitation  
Precipitation 0.00 in - - ()
Sea Level Pressure  
Sea Level Pressure 30.03 in    
Wind  
Wind Speed 6 mph (North)    
Max Wind Speed 10 mph    
Max Gust Speed 18 mph    
Visibility 10 miles    
Events      
Averages and records for this station are not official NWS values.
T = Trace of Precipitation, MM = Missing Value Source: NWS Daily Summary

Daily Weather History Graph

Daily Weather History Graph

Search for Another Location

Airport:

Trip Planner

Search our weather history database for the weather conditions in past years. The results will help you decide how hot, cold, wet, or windy it might be!

Date:

Astronomy

Dec. 05, 2012 Rise Set
Actual Time 11:07 AM AKST 3:29 PM AKST
Civil Twilight 9:49 AM AKST 4:47 PM AKST
Nautical Twilight 8:40 AM AKST 5:56 PM AKST
Astronomical Twilight 7:39 AM AKST 6:57 PM AKST
Moon No Moon Rise 1:27 PM AKST (12/5)
Length of Visible Light 6h 57m
Length of Day
4h 22m
Waning Gibbous, 58% of the Moon is Illuminated
Dec 5
Waning Gibbous
Dec 6
Last Quarter
Dec 12
New
Dec 19
First Quarter
Dec 28
Full

Hourly Weather History & Observations

Time (AKST) Temp. Windchill Dew Point Humidity Pressure Visibility Wind Dir Wind Speed Gust Speed Precip Events Conditions
12:58 AM -14.1 °F -28.3 °F -18.9 °F 79% 30.03 in 10.0 mi North 5.8 mph - N/A   Clear
1:58 AM -14.1 °F -26.3 °F -18.0 °F 82% 30.02 in 10.0 mi Variable 4.6 mph - N/A   Clear
2:58 AM -14.1 °F -33.7 °F -18.0 °F 82% 30.01 in 10.0 mi North 10.4 mph 18.4 mph N/A   Clear
3:58 AM -14.1 °F -29.9 °F -18.0 °F 82% 30.02 in 10.0 mi North 6.9 mph - N/A   Clear
5:58 AM -15.0 °F -31.0 °F -18.9 °F 82% 30.01 in 10.0 mi North 6.9 mph - N/A   Clear
6:58 AM -14.1 °F -33.7 °F -18.9 °F 79% 30.01 in 10.0 mi North 10.4 mph - N/A   Clear
7:58 AM -14.1 °F -31.3 °F -18.9 °F 79% 30.01 in 10.0 mi North 8.1 mph - N/A   Clear
8:58 AM -15.0 °F -31.0 °F -20.0 °F 78% 30.01 in 10.0 mi Variable 6.9 mph - N/A   Clear
9:58 AM -15.0 °F -25.0 °F -20.0 °F 78% 30.02 in 10.0 mi Variable 3.5 mph - N/A   Clear
10:58 AM -15.0 °F -25.0 °F -20.0 °F 78% 30.03 in 10.0 mi North 3.5 mph - N/A   Clear
11:58 AM -14.1 °F -23.9 °F -18.9 °F 79% 30.04 in 10.0 mi Variable 3.5 mph - N/A   Clear
12:58 PM -13.0 °F -25.1 °F -17.0 °F 82% 30.03 in 10.0 mi NNW 4.6 mph - N/A   Mostly Cloudy
1:58 PM -11.9 °F -21.5 °F -17.0 °F 78% 30.04 in 10.0 mi NNW 3.5 mph - N/A   Clear
2:58 PM -13.0 °F -25.1 °F -18.0 °F 78% 30.03 in 10.0 mi NNW 4.6 mph - N/A   Clear
3:58 PM -13.0 °F -28.6 °F -18.0 °F 78% 30.04 in 10.0 mi North 6.9 mph - N/A   Clear
4:58 PM -11.9 °F -25.7 °F -17.0 °F 78% 30.04 in 10.0 mi North 5.8 mph - N/A   Mostly Cloudy
5:58 PM -11.0 °F -24.6 °F -16.1 °F 78% 30.03 in 10.0 mi Variable 5.8 mph - N/A   Clear
6:58 PM -11.0 °F - -16.1 °F 78% 30.04 in 10.0 mi Calm Calm - N/A   Clear
7:58 PM -11.0 °F - -15.0 °F 83% 30.04 in 10.0 mi Calm Calm - N/A   Clear
8:58 PM -11.0 °F -20.4 °F -16.1 °F 78% 30.04 in 10.0 mi North 3.5 mph - N/A   Clear
9:58 PM -9.0 °F -23.8 °F -14.1 °F 79% 30.05 in 10.0 mi NNE 6.9 mph - N/A   Clear
10:58 PM -9.0 °F -20.4 °F -13.0 °F 83% 30.06 in 10.0 mi North 4.6 mph - N/A   Clear
11:58 PM -9.0 °F -22.3 °F -13.0 °F 83% 30.06 in 10.0 mi Variable 5.8 mph - N/A   Clear